Temp_Advection
nan nan nan nan nan nan nan nan nan nan nan nan nan nan nan nan nan nan nan nan nan nan nan nan nan nan nan nan nan nan nan nan nan nan nan nan nan nan nan nan nan nan nan nan
nan -0 -0 -1 -0 -0 -0 -0 -0 -0 -0 -0 -0 -0 -0 -0 -0 -0 0 0 0 0 0 0 0 1 1 1 1 1 1 1 1 1 1 1 1 1 1 1 1 1 0 nan
nan -1 -0 -0 0 -0 -0 -0 -0 -0 -0 -0 -0 -0 -0 -0 -0 -0 0 0 0 0 0 0 0 0 1 1 1 1 1 1 1 1 1 1 1 1 1 1 1 0 0 nan
nan -1 -0 -0 -0 -0 -0 -0 -0 -0 -0 -1 -0 -0 -0 -0 -0 -0 0 0 0 0 0 0 0 0 0 1 1 1 1 1 1 1 1 1 1 1 1 1 1 1 1 nan
nan -0 -0 -0 -0 -0 -0 -0 -0 -0 -0 -0 -0 0 -0 -0 -0 -0 -0 -0 -0 -0 0 0 0 0 0 0 0 0 0 1 1 1 1 1 1 1 1 1 1 2 1 nan
nan 0 -0 -0 -0 -0 -0 -0 -0 -0 -0 -0 -1 -0 -0 -0 0 0 0 0 0 -0 -0 0 0 0 -0 0 0 0 0 0 0 0 1 1 1 1 1 1 0 0 0 nan
nan 0 -1 -0 -0 -0 0 0 -0 -0 -0 -0 -0 -0 0 0 0 0 0 0 0 0 0 0 0 0 0 -0 0 0 0 0 0 0 0 0 1 1 0 -0 -0 -0 -1 nan
nan 1 -0 0 0 -0 0 -0 0 0 0 0 0 0 0 0 0 0 0 0 0 0 0 0 0 0 0 0 0 0 0 0 0 0 1 0 -0 -0 0 -0 -1 -1 -0 nan
nan -0 -0 0 -0 -0 0 0 0 0 0 0 0 0 0 0 0 0 0 0 0 0 -0 -0 0 0 0 -0 -0 -0 0 0 0 -0 -0 0 -0 -1 -1 -0 -0 -0 -0 nan
nan -0 -0 -1 -0 -0 0 0 0 0 0 0 -0 -0 -0 0 0 0 0 0 0 -0 -0 0 -0 -0 0 0 -0 -0 -0 -0 -0 -0 -0 -0 0 -0 -0 -0 -0 -0 -0 nan
nan -1 -1 -1 -0 0 0 0 0 0 -0 -0 -0 -0 -0 -0 -0 -0 0 0 0 0 0 0 0 0 -0 0 0 0 -0 -0 -0 -0 -0 -0 -0 0 0 0 0 0 1 nan
nan -1 -0 -0 0 0 0 0 -0 0 -0 -0 -0 -0 -0 0 0 -0 -0 -0 0 0 0 -0 -0 0 0 0 0 0 -0 -0 0 -0 0 0 0 0 0 0 0 1 1 nan
nan 0 0 0 0 0 0 0 0 -0 -0 -0 -0 -0 -0 -0 -0 -0 -0 -0 -0 0 0 0 0 -0 0 0 0 0 0 0 0 0 0 0 0 0 0 1 1 0 1 nan
nan 0 0 0 0 0 0 0 0 0 0 -0 -0 -0 -0 -0 0 -0 -0 -0 0 -0 -0 -0 -0 0 0 0 0 0 0 0 0 0 0 0 1 1 1 1 1 1 1 nan
nan 0 0 -0 0 0 0 0 0 0 -0 0 0 0 -0 -0 -0 -0 -0 -0 -0 -0 0 0 -0 0 0 0 0 0 0 0 0 0 1 1 1 1 1 1 0 0 -0 nan
nan 0 0 0 0 0 0 0 0 0 0 0 0 0 -0 -0 0 0 -0 -0 -0 -0 0 -0 -0 0 0 0 0 0 0 0 0 0 0 0 0 0 0 -0 0 -0 -0 nan
nan 0 -0 -0 0 0 0 0 0 0 0 0 0 0 0 -0 -0 -0 0 0 -0 -0 0 -0 0 1 0 -0 0 0 1 0 0 0 0 0 0 0 0 0 0 0 0 nan
nan -0 0 0 0 0 0 0 0 0 0 0 0 0 -0 -0 -0 0 0 -0 -1 -0 -0 0 1 0 0 0 0 0 0 1 0 0 1 0 0 0 0 0 0 0 0 nan
nan 0 0 0 0 0 0 0 0 0 0 0 0 0 0 -0 -0 0 -0 -0 -0 -1 0 1 0 0 -0 -0 0 0 0 1 0 0 0 0 0 0 0 0 0 0 0 nan
nan 1 1 0 0 0 0 0 0 0 0 0 0 -0 0 1 0 -0 -0 -1 -0 -0 0 0 0 -0 -0 0 0 0 0 0 0 0 0 0 0 0 0 0 0 0 0 nan
nan 1 1 0 0 0 0 0 0 0 0 0 0 0 0 0 0 -0 -1 -1 -0 1 -0 -0 -0 -0 -0 0 0 0 -0 0 0 0 0 0 1 1 1 0 0 0 0 nan
nan 0 0 0 0 0 0 0 0 0 0 0 0 0 -0 0 0 0 -0 -1 -0 0 -0 -0 -0 -0 0 0 0 0 -0 0 0 0 0 1 1 0 0 0 0 0 0 nan
nan 0 0 0 -0 0 0 0 0 0 0 0 0 0 -0 -0 0 -0 -0 0 -0 0 -0 -0 -0 0 1 0 -0 -0 -0 0 0 0 0 0 0 0 0 0 0 0 0 nan
nan 0 -0 -0 -0 -0 0 0 0 -0 -0 0 0 0 -0 -0 0 -0 -0 -0 -0 -0 0 -0 0 0 -0 -1 -0 0 0 0 0 0 0 0 0 0 0 0 0 0 0 nan
nan 0 0 0 0 0 0 0 0 -0 0 0 0 0 0 -0 -0 -0 -0 -0 -0 -0 -0 0 0 0 -0 0 -0 -0 -0 0 0 0 0 0 0 0 0 0 0 0 0 nan
nan -0 0 0 0 0 0 0 -0 0 0 0 0 0 0 0 -0 -0 -0 -0 -0 -0 -0 0 0 -0 -0 -0 -0 -0 -0 0 0 -0 -0 0 0 0 0 0 0 0 0 nan
nan nan nan nan nan nan nan nan nan nan nan nan nan nan nan nan nan nan nan nan nan nan nan nan nan nan nan nan nan nan nan nan nan nan nan nan nan nan nan nan nan nan nan nan
Wind_Speed
2 3 11 18 22 25 20 15 7 5 7 6 5 5 5 4 5 8 11 11 10 11 12 11 12 13 13 15 16 17 19 20 21 23 24 26 28 32 34 34 35 35 31 30
2 8 3 18 22 19 18 13 11 7 9 8 12 12 9 6 7 9 9 7 6 6 6 7 10 12 13 15 15 16 16 19 21 22 23 25 27 30 30 28 29 29 29 30
4 9 3 5 15 12 7 13 6 9 7 7 7 7 8 8 9 9 8 8 7 7 8 8 9 10 13 14 14 15 16 18 19 22 24 26 28 29 28 28 28 28 28 28
3 5 6 3 7 6 2 11 14 9 12 10 8 12 11 7 7 7 7 6 7 6 8 9 9 10 11 13 15 16 18 19 21 22 24 25 25 26 27 26 29 29 27 26
3 2 2 6 5 4 4 6 11 10 12 10 14 4 13 9 5 6 7 7 8 7 7 8 9 11 12 14 15 16 19 21 23 24 26 27 28 28 28 29 28 27 25 23
4 5 0 6 5 6 1 2 11 13 12 12 15 3 2 8 7 7 7 7 8 8 10 10 10 11 13 14 16 17 19 19 20 21 23 24 25 26 27 27 26 24 23 21
3 0 6 5 11 4 4 4 12 12 13 14 4 3 3 4 6 6 7 8 9 10 10 10 10 11 13 14 15 17 18 19 20 20 22 23 24 25 25 23 23 23 23 22
2 4 4 5 4 5 3 3 8 11 12 11 7 6 6 5 6 6 7 7 7 8 9 9 9 9 12 14 15 17 19 19 20 21 21 21 18 18 20 24 25 24 23 21
7 4 2 3 1 0 2 4 6 9 9 7 4 4 2 3 4 6 6 7 7 7 8 9 9 10 12 15 17 19 20 21 21 19 18 18 19 21 24 24 23 22 20 18
4 3 6 9 6 4 2 4 5 6 7 7 4 3 1 1 2 3 3 5 6 7 7 7 9 11 10 12 14 15 16 16 16 17 19 20 20 21 22 24 23 21 20 18
5 9 9 13 14 10 7 6 6 6 5 5 4 2 3 2 2 2 2 3 3 3 5 6 8 10 11 11 12 14 15 16 16 18 19 19 19 19 19 19 19 19 19 18
5 4 4 4 4 10 11 9 9 8 7 6 6 5 4 5 6 6 6 6 6 8 9 8 8 9 11 12 13 14 16 16 16 17 17 18 18 19 19 18 19 20 20 20
2 3 8 10 9 8 10 10 10 9 9 9 9 9 8 8 7 8 9 10 9 8 9 11 11 12 13 14 15 16 15 15 17 17 18 19 20 22 23 23 24 24 25 27
12 8 8 9 6 5 11 9 9 9 10 10 9 11 12 12 11 12 11 11 12 13 13 14 15 15 16 16 16 16 16 16 16 16 17 18 19 22 23 24 24 23 22 20
11 10 11 8 5 7 7 9 10 9 9 8 9 9 10 12 13 14 15 15 16 17 17 18 18 18 18 19 18 18 18 19 20 18 17 17 18 22 22 23 24 24 22 23
6 11 11 11 9 9 10 11 12 10 10 10 11 10 11 12 13 14 15 18 20 21 19 20 21 18 20 21 21 21 21 22 21 20 21 22 22 23 23 23 24 25 26 27
9 9 12 14 12 12 12 11 13 12 13 14 13 14 16 16 17 16 16 18 21 22 23 24 23 22 23 24 24 24 23 24 25 24 24 24 23 23 23 22 22 22 23 23
14 12 10 10 10 10 12 12 13 15 16 16 18 19 19 20 22 21 20 21 22 23 22 23 25 25 28 29 28 27 27 27 28 28 26 26 26 24 23 23 23 22 22 22
11 13 14 14 13 14 13 14 15 17 18 19 21 22 22 22 22 22 23 25 26 26 22 22 23 27 28 27 29 30 29 29 29 30 29 26 27 27 27 26 25 24 23 24
11 15 17 16 16 15 15 16 17 18 18 21 23 24 23 21 21 22 24 26 25 25 25 23 25 27 28 28 29 32 32 32 31 31 32 31 30 30 28 27 27 26 25 26
17 18 19 18 17 16 16 16 17 18 18 20 21 21 21 21 20 21 23 25 18 19 25 26 26 26 27 27 29 32 32 33 33 33 33 34 33 33 31 30 29 29 28 27
19 20 18 18 18 18 19 18 18 18 18 18 20 20 20 19 18 20 21 23 18 18 21 23 25 26 26 28 29 31 32 32 33 33 34 34 34 34 33 32 31 31 30 29
18 15 14 16 17 16 16 16 17 16 16 16 17 16 18 17 17 20 21 17 19 17 18 17 19 23 25 26 30 30 30 31 32 32 32 32 32 33 32 32 31 30 30 30
12 10 13 14 14 15 15 14 14 14 14 14 14 14 15 15 14 15 14 13 14 14 15 17 16 14 17 24 26 28 29 29 29 29 30 29 29 29 30 30 30 30 29 29
10 11 12 13 14 14 15 13 12 13 14 13 12 13 13 12 13 10 12 12 12 12 14 14 13 12 14 17 22 21 21 24 25 26 26 26 27 27 27 27 27 28 28 27
13 13 13 14 14 13 13 13 12 12 13 12 11 12 10 10 11 12 11 11 10 10 10 10 11 14 19 14 17 20 17 15 15 17 19 21 21 22 22 23 23 24 26 27
16 15 15 15 14 14 13 13 13 10 11 11 10 9 10 11 12 12 10 9 8 8 7 7 7 9 14 17 13 14 16 17 16 15 15 16 17 18 19 21 21 22 23 24
Wind_Direction
298 18 44 24 13 19 30 14 58 49 71 51 58 57 49 66 89 104 107 119 136 146 151 165 168 177 181 192 196 199 202 202 203 207 209 207 208 208 201 199 200 199 192 187
271 359 65 34 18 19 21 9 24 42 60 35 47 69 83 116 110 96 92 101 126 148 164 177 180 183 187 191 191 195 197 200 199 198 197 198 198 198 199 198 197 196 197 198
301 350 26 15 7 5 35 26 336 25 331 16 34 25 24 75 95 103 118 133 142 157 167 177 185 196 193 190 190 191 192 193 192 192 189 189 190 190 186 186 188 186 186 184
295 354 46 259 7 340 24 30 20 17 8 5 25 49 45 58 89 104 116 127 129 149 161 162 166 182 187 183 182 184 184 184 183 183 183 182 182 181 180 180 182 174 166 159
67 27 274 352 8 354 6 17 9 3 354 349 0 11 38 49 90 115 123 126 125 139 136 128 154 171 173 169 171 176 179 179 178 179 179 178 178 175 173 169 164 159 151 150
21 84 352 245 293 341 210 30 6 359 347 339 340 42 9 37 70 90 100 107 116 130 133 144 148 153 160 160 160 163 166 168 168 169 169 168 167 165 164 164 154 142 154 161
23 112 291 261 310 344 52 283 350 350 353 352 5 22 57 59 88 107 126 135 142 143 144 150 151 159 159 157 159 159 159 160 162 163 165 164 161 157 150 141 147 160 166 171
65 42 331 346 340 103 223 334 342 357 4 14 63 80 77 80 89 104 117 125 129 135 136 136 141 150 158 156 156 155 152 154 154 154 155 151 143 143 157 167 170 172 176 177
172 221 255 326 60 103 305 314 342 357 8 12 23 41 52 89 104 116 115 116 115 127 137 136 135 137 146 152 156 157 155 155 154 150 151 162 168 172 173 177 181 182 185 190
32 282 244 250 245 242 288 312 318 337 352 3 358 350 351 143 137 117 115 118 122 129 136 153 150 150 153 164 167 165 158 160 167 173 175 179 182 186 187 188 190 195 197 198
267 280 276 263 246 248 253 288 307 306 311 327 330 300 251 241 245 248 210 191 178 174 168 172 183 179 174 183 187 182 184 186 185 187 190 191 193 196 199 203 210 211 211 214
226 237 221 281 312 236 250 268 295 287 282 280 286 281 282 259 240 238 241 240 229 218 214 207 197 196 197 194 197 199 195 194 196 199 199 202 205 204 205 213 220 220 223 226
274 299 254 276 283 253 250 274 282 280 275 263 266 267 267 259 256 245 242 238 234 234 227 220 218 216 207 203 205 203 204 205 205 206 207 210 210 214 216 216 220 226 229 229
259 270 271 273 267 275 263 263 273 280 278 275 261 258 259 259 254 252 249 245 238 232 229 227 223 218 216 216 214 211 208 209 219 221 221 221 223 226 228 228 232 232 226 227
252 252 257 280 276 256 262 269 276 277 276 273 270 266 262 259 258 255 252 250 247 243 236 231 229 223 222 221 221 221 220 221 220 219 224 228 230 233 235 232 230 229 230 225
254 241 250 261 261 257 264 268 273 276 279 285 284 282 276 272 265 256 253 253 248 246 246 245 240 232 233 231 228 227 225 226 227 226 223 223 226 231 239 238 237 235 230 226
231 237 256 262 267 268 267 269 266 268 270 276 281 279 282 283 278 274 266 259 258 254 248 243 241 234 233 235 234 232 231 229 230 228 226 228 230 232 235 240 242 239 237 233
241 252 266 277 279 273 269 269 268 269 271 276 274 276 276 277 278 275 272 267 262 257 254 252 247 242 234 231 232 231 230 229 230 235 231 232 234 235 239 241 242 241 240 236
237 252 263 270 272 274 277 279 277 274 274 278 278 280 280 279 279 275 270 267 265 264 259 254 249 245 243 239 237 234 232 232 232 236 238 237 238 239 240 242 243 244 244 242
264 262 263 266 268 270 274 278 278 277 278 277 279 280 283 283 280 276 273 270 267 267 264 255 248 245 243 237 238 237 235 235 234 235 238 238 238 241 242 244 246 248 248 249
283 276 270 268 266 267 276 279 279 280 279 276 276 279 280 280 280 279 277 277 280 270 261 256 250 246 244 240 237 240 237 236 235 236 236 240 242 243 244 246 248 251 252 253
289 279 272 264 265 269 273 276 279 280 280 280 278 279 279 280 279 276 277 282 284 270 264 260 253 247 242 239 239 238 239 238 238 238 238 239 243 245 248 250 252 255 257 258
301 286 271 266 268 276 280 281 280 284 285 283 281 280 279 281 279 280 284 284 280 274 269 265 260 248 242 241 239 238 239 240 240 241 243 243 245 248 252 254 256 256 258 259
307 290 279 280 284 285 284 282 286 289 287 286 283 281 282 283 280 283 288 285 285 277 270 264 259 253 247 240 243 241 239 240 242 243 244 247 247 249 250 252 255 258 258 259
309 300 294 292 290 291 288 286 287 286 286 287 285 285 285 282 283 284 288 291 290 279 273 267 263 227 248 248 243 247 247 244 244 246 248 248 251 251 251 253 254 255 257 259
303 299 295 292 291 290 287 285 287 286 286 286 283 284 281 280 282 287 288 289 294 291 283 276 259 240 228 240 240 238 244 245 244 247 248 249 249 251 252 253 255 257 261 262
297 295 294 290 289 287 283 282 283 286 284 286 285 279 285 283 283 283 281 281 289 299 299 293 261 246 234 232 237 240 243 244 243 244 248 250 249 249 252 255 257 258 259 261
Height
1462 1459 1460 1457 1447 1441 1437 1436 1433 1441 1443 1446 1447 1445 1443 1444 1443 1440 1439 1441 1445 1449 1452 1455 1457 1460 1463 1469 1472 1476 1480 1484 1487 1491 1495 1499 1504 1509 1515 1520 1526 1532 1535 1542
1470 1462 1456 1458 1461 1453 1451 1450 1449 1445 1444 1446 1446 1448 1451 1453 1448 1444 1443 1444 1448 1450 1451 1455 1459 1461 1465 1469 1472 1476 1479 1483 1487 1490 1495 1499 1504 1510 1514 1518 1525 1529 1535 1540
1482 1467 1463 1466 1474 1470 1469 1468 1465 1459 1462 1455 1454 1455 1455 1453 1450 1450 1452 1453 1453 1455 1457 1459 1460 1464 1467 1469 1472 1476 1480 1483 1486 1490 1494 1499 1505 1510 1513 1518 1524 1528 1533 1537
1491 1474 1496 1483 1479 1477 1474 1475 1470 1467 1466 1465 1462 1460 1457 1455 1453 1454 1454 1456 1455 1458 1461 1461 1462 1467 1470 1471 1474 1477 1481 1484 1487 1492 1496 1501 1506 1510 1514 1517 1527 1528 1534 1538
1499 1514 1491 1486 1482 1483 1482 1477 1475 1473 1471 1467 1464 1464 1463 1462 1461 1460 1459 1460 1461 1464 1463 1462 1467 1471 1473 1474 1476 1479 1483 1486 1490 1494 1498 1502 1506 1510 1515 1521 1526 1528 1534 1540
1514 1522 1511 1491 1482 1481 1480 1480 1482 1478 1474 1469 1464 1463 1466 1466 1465 1464 1463 1464 1465 1468 1469 1472 1474 1475 1477 1479 1479 1482 1486 1490 1494 1498 1502 1506 1510 1514 1518 1523 1526 1531 1538 1544
1522 1532 1504 1487 1481 1479 1482 1489 1483 1482 1478 1473 1471 1471 1470 1469 1469 1470 1471 1472 1473 1473 1474 1475 1476 1479 1480 1482 1484 1487 1490 1494 1498 1502 1505 1509 1513 1517 1521 1524 1530 1536 1540 1545
1526 1528 1507 1485 1482 1487 1488 1484 1483 1481 1479 1477 1475 1474 1473 1473 1472 1473 1473 1473 1474 1475 1476 1477 1479 1481 1483 1485 1489 1492 1493 1497 1501 1505 1508 1512 1515 1519 1524 1529 1534 1538 1542 1545
1509 1500 1486 1485 1485 1485 1485 1485 1484 1482 1480 1478 1477 1476 1476 1476 1476 1476 1475 1474 1474 1476 1478 1481 1482 1484 1486 1489 1492 1495 1497 1500 1503 1506 1510 1514 1518 1522 1526 1531 1535 1538 1542 1545
1501 1488 1484 1484 1484 1484 1484 1484 1484 1482 1480 1479 1478 1477 1477 1477 1477 1476 1477 1477 1478 1479 1481 1484 1486 1488 1489 1493 1496 1498 1499 1502 1505 1509 1512 1515 1519 1523 1526 1529 1533 1537 1540 1543
1497 1484 1482 1481 1481 1482 1482 1482 1482 1482 1482 1481 1480 1479 1478 1478 1477 1478 1479 1479 1480 1480 1483 1485 1488 1489 1491 1495 1498 1499 1502 1504 1507 1510 1513 1516 1519 1523 1526 1530 1534 1536 1539 1542
1493 1479 1480 1479 1479 1480 1480 1481 1480 1480 1480 1480 1479 1479 1479 1479 1479 1480 1480 1480 1481 1483 1485 1486 1487 1490 1492 1495 1498 1500 1501 1503 1507 1509 1512 1515 1518 1522 1525 1529 1531 1534 1536 1539
1478 1478 1479 1478 1477 1477 1478 1479 1479 1478 1478 1477 1477 1478 1478 1478 1479 1479 1480 1480 1481 1483 1484 1485 1487 1489 1491 1494 1496 1498 1500 1503 1505 1507 1509 1512 1515 1519 1521 1525 1526 1529 1531 1534
1478 1478 1477 1476 1476 1477 1477 1477 1476 1476 1476 1475 1475 1475 1476 1476 1477 1478 1479 1479 1480 1481 1483 1484 1486 1489 1490 1492 1494 1495 1498 1499 1502 1505 1507 1509 1512 1516 1518 1520 1522 1523 1526 1529
1476 1476 1475 1475 1474 1474 1475 1475 1474 1474 1474 1474 1473 1473 1473 1474 1474 1474 1475 1475 1476 1478 1479 1481 1483 1486 1487 1488 1490 1492 1494 1496 1499 1501 1502 1505 1509 1511 1513 1515 1516 1519 1521 1524
1472 1474 1473 1473 1472 1472 1471 1472 1471 1471 1471 1471 1470 1470 1470 1470 1471 1471 1472 1471 1472 1474 1476 1476 1478 1482 1483 1484 1485 1488 1491 1493 1494 1496 1498 1500 1502 1505 1507 1508 1510 1512 1514 1517
1470 1470 1470 1469 1469 1468 1467 1467 1467 1467 1467 1467 1467 1466 1465 1465 1465 1465 1466 1466 1465 1466 1468 1470 1472 1475 1476 1478 1480 1482 1485 1487 1489 1490 1492 1494 1496 1499 1501 1503 1505 1506 1509 1512
1467 1467 1467 1467 1466 1465 1464 1463 1462 1462 1462 1462 1461 1461 1460 1460 1459 1459 1459 1458 1459 1460 1462 1463 1465 1466 1468 1470 1472 1475 1478 1480 1481 1482 1486 1488 1490 1493 1495 1497 1499 1501 1503 1506
1464 1464 1464 1463 1462 1462 1461 1460 1459 1458 1457 1456 1455 1454 1453 1453 1452 1452 1452 1451 1451 1451 1455 1456 1457 1457 1459 1462 1464 1466 1469 1471 1474 1475 1478 1482 1484 1486 1489 1491 1493 1495 1497 1499
1460 1460 1459 1459 1458 1457 1456 1455 1454 1453 1453 1451 1449 1448 1447 1446 1446 1444 1444 1442 1443 1444 1445 1447 1447 1449 1451 1455 1456 1457 1460 1463 1466 1469 1471 1474 1476 1479 1481 1484 1486 1488 1489 1490
1456 1455 1454 1453 1452 1452 1451 1450 1449 1448 1447 1445 1444 1442 1441 1440 1439 1438 1436 1434 1437 1437 1436 1437 1439 1441 1443 1446 1448 1448 1452 1455 1457 1460 1463 1465 1468 1471 1473 1476 1478 1479 1481 1482
1449 1448 1447 1447 1446 1446 1445 1444 1443 1442 1441 1439 1438 1437 1435 1435 1434 1432 1431 1429 1430 1429 1428 1429 1430 1433 1435 1437 1438 1440 1443 1446 1449 1452 1455 1458 1460 1462 1465 1467 1469 1471 1472 1474
1443 1442 1441 1441 1441 1440 1439 1438 1437 1436 1435 1434 1432 1431 1430 1429 1428 1426 1425 1425 1423 1423 1422 1423 1423 1424 1427 1429 1430 1433 1435 1438 1441 1444 1447 1450 1452 1454 1457 1458 1461 1463 1464 1465
1439 1438 1437 1437 1436 1435 1434 1433 1432 1431 1430 1429 1428 1426 1425 1424 1424 1422 1421 1419 1418 1417 1417 1417 1417 1418 1420 1422 1423 1425 1428 1431 1433 1436 1439 1441 1444 1446 1448 1450 1451 1453 1454 1455
1437 1436 1434 1433 1432 1431 1430 1429 1427 1426 1425 1424 1423 1422 1421 1420 1420 1419 1418 1416 1415 1413 1413 1412 1413 1415 1416 1416 1417 1419 1422 1424 1427 1429 1431 1434 1435 1438 1440 1441 1443 1444 1445 1446
1434 1432 1431 1429 1428 1427 1426 1424 1423 1423 1421 1420 1419 1418 1418 1417 1416 1416 1414 1413 1412 1410 1409 1409 1409 1409 1410 1412 1413 1415 1417 1419 1421 1423 1425 1426 1428 1430 1432 1433 1434 1435 1436 1437
1430 1428 1426 1425 1424 1422 1421 1420 1419 1419 1418 1417 1416 1415 1414 1414 1413 1412 1411 1410 1409 1408 1407 1406 1406 1406 1407 1409 1410 1412 1413 1415 1417 1418 1419 1421 1422 1424 1425 1426 1427 1428 1429 1429